TimeEDT,TemperatureF,Dew PointF,Humidity,Sea Level PressureIn,VisibilityMPH,Wind Direction,Wind SpeedMPH,Gust SpeedMPH,PrecipitationIn,Events,Conditions,WindDirDegrees,DateUTC
12:53 AM,78.1,73.9,87,30.04,10.0,East,12.7,-,N/A,,Overcast,100,2012-10-10 04:53:00
1:35 AM,78.8,73.4,83,30.04,10.0,East,16.1,-,N/A,,Overcast,90,2012-10-10 05:35:00
1:53 AM,78.1,73.0,84,30.04,10.0,East,11.5,-,N/A,,Overcast,90,2012-10-10 05:53:00
2:11 AM,77.0,71.6,83,30.04,10.0,East,12.7,-,N/A,,Overcast,90,2012-10-10 06:11:00
2:31 AM,77.0,71.6,83,30.04,10.0,ENE,12.7,-,N/A,,Overcast,70,2012-10-10 06:31:00
2:53 AM,77.0,73.0,88,30.04,10.0,ENE,11.5,-,N/A,,Overcast,60,2012-10-10 06:53:00
3:09 AM,75.2,73.4,94,30.03,10.0,ENE,11.5,-,N/A,,Overcast,60,2012-10-10 07:09:00
3:23 AM,75.2,71.6,89,30.03,10.0,ENE,11.5,-,N/A,,Overcast,60,2012-10-10 07:23:00
3:37 AM,75.2,71.6,89,30.03,10.0,ENE,10.4,-,N/A,,Overcast,60,2012-10-10 07:37:00
3:53 AM,75.0,72.0,90,30.03,10.0,NE,12.7,-,N/A,,Mostly Cloudy,50,2012-10-10 07:53:00
4:53 AM,75.0,71.1,87,30.04,10.0,ENE,12.7,-,N/A,,Partly Cloudy,70,2012-10-10 08:53:00
5:53 AM,75.0,71.1,87,30.05,10.0,ENE,12.7,-,N/A,,Mostly Cloudy,70,2012-10-10 09:53:00
6:53 AM,75.0,71.1,87,30.05,10.0,East,11.5,-,N/A,,Clear,80,2012-10-10 10:53:00
7:53 AM,75.9,71.1,85,30.07,10.0,ENE,11.5,-,N/A,,Clear,60,2012-10-10 11:53:00
8:53 AM,75.9,71.1,85,30.09,10.0,ENE,8.1,-,N/A,,Clear,60,2012-10-10 12:53:00
9:53 AM,77.0,71.1,82,30.10,10.0,ENE,9.2,-,N/A,,Clear,70,2012-10-10 13:53:00
10:53 AM,80.1,71.1,74,30.10,10.0,ENE,8.1,-,N/A,,Partly Cloudy,60,2012-10-10 14:53:00
11:53 AM,82.0,72.0,71,30.10,10.0,ENE,4.6,-,N/A,,Clear,60,2012-10-10 15:53:00
12:53 PM,82.9,71.1,67,30.09,10.0,ENE,6.9,-,N/A,,Mostly Cloudy,60,2012-10-10 16:53:00
1:53 PM,84.0,70.0,63,30.07,10.0,NE,9.2,-,N/A,,Partly Cloudy,40,2012-10-10 17:53:00
2:53 PM,82.9,71.1,67,30.05,10.0,ENE,8.1,-,N/A,,Mostly Cloudy,60,2012-10-10 18:53:00
3:53 PM,84.9,70.0,61,30.03,10.0,NE,6.9,-,N/A,,Partly Cloudy,50,2012-10-10 19:53:00
4:53 PM,84.9,68.0,57,30.02,10.0,NNE,10.4,-,N/A,,Clear,30,2012-10-10 20:53:00
5:53 PM,84.0,68.0,58,30.02,10.0,North,9.2,-,N/A,,Clear,360,2012-10-10 21:53:00
6:53 PM,82.0,66.9,60,30.03,10.0,North,10.4,-,N/A,,Clear,10,2012-10-10 22:53:00
7:53 PM,80.1,66.9,64,30.04,10.0,North,8.1,-,N/A,,Clear,10,2012-10-10 23:53:00
8:53 PM,79.0,69.1,72,30.06,10.0,North,6.9,-,N/A,,Clear,350,2012-10-11 00:53:00
9:53 PM,78.1,69.1,74,30.09,10.0,North,6.9,-,N/A,,Clear,360,2012-10-11 01:53:00
10:53 PM,78.1,69.1,74,30.10,10.0,North,6.9,-,N/A,,Clear,10,2012-10-11 02:53:00
11:53 PM,77.0,69.1,76,30.10,10.0,North,6.9,-,N/A,,Clear,10,2012-10-11 03:53:00